sat.trackr.live / text

‹ back to catalog

STARLINK-31228

NORAD 58842 · 2024-017S

PAYLOAD ACTIVE UNKNOWN

§ Identity

Operator
Country
US
Launch date
2024-01-24
Launch site
AFWTR
Launch vehicle
Mass (kg)
RCS (m²)

Purposes: comms

External: N2YO · Heavens-Above · Gunter

§ Orbital elements

Epoch: 2026-05-25T03:57:57.408192Z

Period
94.11 min
Inclination
53.1611°
Eccentricity
0.0001152
Mean motion
15.30190518 rev/d
Perigee alt
474.5 km
Apogee alt
476.0 km
Semi-major
6,853.4 km
B*
4.5572e-5
RAAN
209.1897°
Arg perigee
97.7237°
Mean anomaly
262.3894°
Rev number
13,176

§ Raw data

STARLINK-312281 58842U 24017S   26145.16524778  .00000990  00000+0  45572-4 0  99932 58842  53.1611 209.1897 0001152  97.7237 262.3894 15.30190518131761

JSON: /api/v1/satellites/58842 · /tle

For live sub-satellite position, see the globe view (requires WebGL).

§ Visibility from observer

Set your observer location to see the next 7 days of passes ≥ 10°. The values pass through the URL so the page stays shareable.

No JS? Fill the form by hand. The geolocation button needs JavaScript.